Location: Pace/Milton
(30.6162°N, 87.1503°W)
Time: 16:13:13
(UTC-06:00)

ISS - Pass Details

Date: 08 December 2021
Orbit: 413 x 422 km, 51.6° (Epoch: 28 January)

Event Time Altitude Azimuth Distance (km) Brightness Sun altitude
Rises 18:42:28 0° 300° (WNW) 2,371 0.7 -24.1°
Reaches altitude 10° 18:44:53 10° 284° (WNW) 1,500 -0.1 -24.6°
Maximum altitude 18:47:31 21° 233° (SW) 984 -1.2 -25.2°
Enters shadow 18:48:49 17° 200° (SSW) 1,126 -1.3 -25.4°
